Torna al catalogo

MOLNIYA 1-86

AttivoComunicazioniHEO
NORAD 22671·PAYLOAD·🇷🇺 Russia

Lanciato May 26, 1993 da Plesetsk Cosmodrome

Loading…

Prossimi Passaggi (prossime 24 ore)

TLE

AggiornatoSource: Space-Track

Epoca: Sep 14, 2026, 14:57 UTC

1 22671U 93035A   26257.62323997  .00001107  00000-0  37413-3 0  9991
2 22671  62.9320  41.6387 4944351  36.2411 348.8378  5.65992750439698

Traccia MOLNIYA 1-86 in tempo reale con AllMySat

Download on the App Store